Time,TemperatureF,DewpointF,PressureIn,WindDirection,WindDirectionDegrees,WindSpeedMPH,WindSpeedGustMPH,Humidity,HourlyPrecipIn,Conditions,Clouds,dailyrainin,SoftwareType,DateUTC
2013-03-16 00:00:00,45.2,38.4,30.10,SSW,209,4.0,5.0,77,0.00,,,0.00,Wunderground v.1.15,2013-03-16 07:00:00,
2013-03-16 00:06:00,45.0,38.2,30.10,SSW,194,5.0,6.0,77,0.00,,,0.00,Wunderground v.1.15,2013-03-16 07:06:00,
2013-03-16 00:12:00,44.8,38.4,30.09,South,190,6.0,7.0,78,0.00,,,0.00,Wunderground v.1.15,2013-03-16 07:12:00,
2013-03-16 00:17:00,44.7,38.3,30.09,South,190,7.0,7.0,78,0.00,,,0.00,Wunderground v.1.15,2013-03-16 07:17:00,
2013-03-16 00:23:00,44.5,38.4,30.09,SSW,196,7.0,8.0,79,0.00,,,0.00,Wunderground v.1.15,2013-03-16 07:23:00,
2013-03-16 00:28:00,44.6,38.5,30.09,South,186,7.0,8.0,79,0.00,,,0.00,Wunderground v.1.15,2013-03-16 07:28:00,
2013-03-16 00:34:00,44.9,38.8,30.09,SSW,192,7.0,8.0,79,0.00,,,0.00,Wunderground v.1.15,2013-03-16 07:34:00,
2013-03-16 00:40:00,44.7,38.9,30.09,South,182,6.0,7.0,80,0.00,,,0.00,Wunderground v.1.15,2013-03-16 07:40:00,
2013-03-16 00:45:00,44.3,38.8,30.09,South,184,5.0,7.0,81,0.00,,,0.00,Wunderground v.1.15,2013-03-16 07:45:00,
2013-03-16 00:51:00,44.1,39.0,30.09,South,177,9.0,9.0,82,0.00,,,0.00,Wunderground v.1.15,2013-03-16 07:51:00,
2013-03-16 00:57:00,44.1,39.0,30.09,South,173,9.0,11.0,82,0.00,,,0.00,Wunderground v.1.15,2013-03-16 07:57:00,
2013-03-16 01:03:00,44.1,39.0,30.08,South,174,10.0,10.0,82,0.00,,,0.00,Wunderground v.1.15,2013-03-16 08:03:00,
2013-03-16 01:09:00,44.2,39.1,30.08,South,171,8.0,10.0,82,0.00,,,0.00,Wunderground v.1.15,2013-03-16 08:09:00,
2013-03-16 01:15:00,44.2,39.1,30.08,SSE,165,8.0,9.0,82,0.00,,,0.00,Wunderground v.1.15,2013-03-16 08:15:00,
2013-03-16 01:21:00,44.1,39.3,30.08,South,169,7.0,8.0,83,0.00,,,0.00,Wunderground v.1.15,2013-03-16 08:21:00,
2013-03-16 01:26:00,44.0,39.2,30.08,South,182,7.0,10.0,83,0.00,,,0.00,Wunderground v.1.15,2013-03-16 08:26:00,
2013-03-16 01:32:00,43.9,39.1,30.08,South,176,11.0,11.0,83,0.00,,,0.00,Wunderground v.1.15,2013-03-16 08:32:00,
2013-03-16 01:37:00,43.9,39.1,30.08,South,186,8.0,11.0,83,0.00,,,0.00,Wunderground v.1.15,2013-03-16 08:37:00,
2013-03-16 01:43:00,44.0,39.2,30.08,South,188,9.0,10.0,83,0.00,,,0.00,Wunderground v.1.15,2013-03-16 08:43:00,
2013-03-16 01:49:00,43.9,39.1,30.08,SSE,165,8.0,10.0,83,0.00,,,0.00,Wunderground v.1.15,2013-03-16 08:49:00,
2013-03-16 01:55:00,44.0,39.2,30.08,South,176,9.0,10.0,83,0.00,,,0.00,Wunderground v.1.15,2013-03-16 08:55:00,
2013-03-16 02:00:00,43.9,39.1,30.08,SSW,199,7.0,8.0,83,0.00,,,0.00,Wunderground v.1.15,2013-03-16 09:00:00,
2013-03-16 02:05:00,43.8,39.0,30.08,South,186,9.0,12.0,83,0.00,,,0.00,Wunderground v.1.15,2013-03-16 09:05:00,
2013-03-16 02:10:00,43.6,39.1,30.08,South,184,12.0,12.0,84,0.00,,,0.00,Wunderground v.1.15,2013-03-16 09:10:00,
2013-03-16 02:15:00,43.4,39.2,30.07,SSE,167,8.0,14.0,85,0.00,,,0.00,Wunderground v.1.15,2013-03-16 09:15:00,
2013-03-16 02:20:00,43.2,39.0,30.07,SSW,194,12.0,14.0,85,0.00,,,0.00,Wunderground v.1.15,2013-03-16 09:20:00,
2013-03-16 02:25:00,43.0,38.8,30.07,South,178,11.0,14.0,85,0.00,,,0.00,Wunderground v.1.15,2013-03-16 09:25:00,
2013-03-16 02:30:00,42.8,38.9,30.07,SSE,167,11.0,12.0,86,0.00,,,0.00,Wunderground v.1.15,2013-03-16 09:30:00,
2013-03-16 02:35:00,42.6,38.7,30.07,South,178,10.0,12.0,86,0.00,,,0.00,Wunderground v.1.15,2013-03-16 09:35:00,
2013-03-16 02:40:00,42.4,38.8,30.07,South,179,10.0,11.0,87,0.00,,,0.00,Wunderground v.1.15,2013-03-16 09:40:00,
2013-03-16 02:46:00,42.3,38.7,30.07,South,171,7.0,11.0,87,0.00,,,0.00,Wunderground v.1.15,2013-03-16 09:46:00,
2013-03-16 02:51:00,42.1,38.5,30.07,South,172,8.0,9.0,87,0.00,,,0.00,Wunderground v.1.15,2013-03-16 09:51:00,
2013-03-16 02:56:00,42.0,38.7,30.07,South,170,8.0,12.0,88,0.00,,,0.00,Wunderground v.1.15,2013-03-16 09:56:00,
2013-03-16 03:01:00,41.9,38.6,30.07,South,186,9.0,11.0,88,0.00,,,0.00,Wunderground v.1.15,2013-03-16 10:01:00,
2013-03-16 03:06:00,41.8,38.5,30.07,South,185,8.0,12.0,88,0.00,,,0.00,Wunderground v.1.15,2013-03-16 10:06:00,
2013-03-16 03:11:00,41.6,38.3,30.06,South,169,6.0,9.0,88,0.00,,,0.00,Wunderground v.1.15,2013-03-16 10:11:00,
2013-03-16 03:16:00,41.6,38.3,30.06,South,173,7.0,9.0,88,0.00,,,0.00,Wunderground v.1.15,2013-03-16 10:16:00,
2013-03-16 03:21:00,41.5,38.2,30.06,South,170,8.0,9.0,88,0.00,,,0.00,Wunderground v.1.15,2013-03-16 10:21:00,
2013-03-16 03:26:00,41.6,38.3,30.06,SSE,155,6.0,9.0,88,0.00,,,0.00,Wunderground v.1.15,2013-03-16 10:26:00,
2013-03-16 03:31:00,41.6,38.3,30.06,SSE,161,7.0,8.0,88,0.00,,,0.00,Wunderground v.1.15,2013-03-16 10:31:00,
2013-03-16 03:36:00,41.6,38.3,30.06,SSE,165,5.0,10.0,88,0.00,,,0.00,Wunderground v.1.15,2013-03-16 10:36:00,
2013-03-16 03:41:00,41.6,38.3,30.06,SSE,165,3.0,6.0,88,0.00,,,0.00,Wunderground v.1.15,2013-03-16 10:41:00,
2013-03-16 03:46:00,41.5,38.2,30.05,South,175,4.0,6.0,88,0.00,,,0.00,Wunderground v.1.15,2013-03-16 10:46:00,
2013-03-16 03:51:00,41.4,38.1,30.05,South,175,2.0,4.0,88,0.00,,,0.00,Wunderground v.1.15,2013-03-16 10:51:00,
2013-03-16 03:56:00,41.2,37.9,30.05,SSW,200,3.0,6.0,88,0.00,,,0.00,Wunderground v.1.15,2013-03-16 10:56:00,
2013-03-16 04:01:00,41.2,38.2,30.05,SSE,163,6.0,9.0,89,0.00,,,0.00,Wunderground v.1.15,2013-03-16 11:01:00,
2013-03-16 04:07:00,41.2,37.9,30.05,South,171,6.0,10.0,88,0.00,,,0.00,Wunderground v.1.15,2013-03-16 11:07:00,
2013-03-16 04:12:00,41.1,37.8,30.05,South,170,7.0,10.0,88,0.00,,,0.00,Wunderground v.1.15,2013-03-16 11:12:00,
2013-03-16 04:17:00,41.0,37.7,30.05,South,173,8.0,12.0,88,0.00,,,0.00,Wunderground v.1.15,2013-03-16 11:17:00,
2013-03-16 04:22:00,40.9,37.6,30.05,South,173,8.0,10.0,88,0.00,,,0.00,Wunderground v.1.15,2013-03-16 11:22:00,
2013-03-16 04:27:00,40.7,37.7,30.04,South,183,11.0,11.0,89,0.00,,,0.00,Wunderground v.1.15,2013-03-16 11:27:00,
2013-03-16 04:32:00,40.6,37.6,30.04,South,175,8.0,13.0,89,0.00,,,0.00,Wunderground v.1.15,2013-03-16 11:32:00,
2013-03-16 04:37:00,40.5,37.8,30.04,South,190,9.0,13.0,90,0.00,,,0.00,Wunderground v.1.15,2013-03-16 11:37:00,
2013-03-16 04:42:00,40.3,37.6,30.04,South,182,11.0,12.0,90,0.00,,,0.00,Wunderground v.1.15,2013-03-16 11:42:00,
2013-03-16 04:47:00,40.3,37.6,30.04,South,183,8.0,12.0,90,0.00,,,0.00,Wunderground v.1.15,2013-03-16 11:47:00,
2013-03-16 04:52:00,40.3,37.6,30.04,South,178,7.0,9.0,90,0.00,,,0.00,Wunderground v.1.15,2013-03-16 11:52:00,
2013-03-16 04:57:00,40.3,37.6,30.04,South,187,6.0,11.0,90,0.00,,,0.00,Wunderground v.1.15,2013-03-16 11:57:00,
2013-03-16 05:02:00,40.2,37.5,30.04,South,189,9.0,11.0,90,0.00,,,0.00,Wunderground v.1.15,2013-03-16 12:02:00,
2013-03-16 05:07:00,40.1,37.4,30.03,South,179,9.0,11.0,90,0.00,,,0.00,Wunderground v.1.15,2013-03-16 12:07:00,
2013-03-16 05:12:00,40.0,37.3,30.04,South,190,9.0,11.0,90,0.00,,,0.00,Wunderground v.1.15,2013-03-16 12:12:00,
2013-03-16 05:17:00,40.0,37.3,30.04,South,186,7.0,11.0,90,0.00,,,0.00,Wunderground v.1.15,2013-03-16 12:17:00,
2013-03-16 05:22:00,39.9,37.2,30.04,South,187,6.0,12.0,90,0.00,,,0.00,Wunderground v.1.15,2013-03-16 12:22:00,
2013-03-16 05:28:00,39.9,37.2,30.04,South,176,8.0,13.0,90,0.00,,,0.00,Wunderground v.1.15,2013-03-16 12:28:00,
2013-03-16 05:33:00,39.9,37.2,30.04,SSW,197,7.0,9.0,90,0.00,,,0.00,Wunderground v.1.15,2013-03-16 12:33:00,
2013-03-16 05:38:00,40.0,37.3,30.04,SSW,198,7.0,10.0,90,0.00,,,0.00,Wunderground v.1.15,2013-03-16 12:38:00,
2013-03-16 05:43:00,40.1,37.4,30.04,SSW,210,8.0,10.0,90,0.00,,,0.00,Wunderground v.1.15,2013-03-16 12:43:00,
2013-03-16 05:48:00,40.2,37.5,30.04,SSW,209,8.0,12.0,90,0.00,,,0.00,Wunderground v.1.15,2013-03-16 12:48:00,
2013-03-16 05:54:00,40.2,37.5,30.04,SSW,206,8.0,13.0,90,0.00,,,0.00,Wunderground v.1.15,2013-03-16 12:54:00,
2013-03-16 05:59:00,40.4,37.7,30.03,SSW,198,13.0,14.0,90,0.00,,,0.00,Wunderground v.1.15,2013-03-16 12:59:00,
2013-03-16 06:04:00,40.4,37.4,30.03,SSW,195,13.0,15.0,89,0.00,,,0.00,Wunderground v.1.15,2013-03-16 13:04:00,
2013-03-16 06:09:00,40.4,37.4,30.03,SSW,192,11.0,15.0,89,0.00,,,0.00,Wunderground v.1.15,2013-03-16 13:09:00,
2013-03-16 06:14:00,40.4,37.4,30.03,SSW,192,10.0,15.0,89,0.00,,,0.00,Wunderground v.1.15,2013-03-16 13:14:00,
2013-03-16 06:19:00,40.3,37.3,30.03,SSW,201,8.0,15.0,89,0.00,,,0.00,Wunderground v.1.15,2013-03-16 13:19:00,
2013-03-16 06:24:00,40.1,37.1,30.03,SSW,200,9.0,12.0,89,0.00,,,0.00,Wunderground v.1.15,2013-03-16 13:24:00,
2013-03-16 06:29:00,40.0,37.0,30.03,SSW,200,11.0,12.0,89,0.00,,,0.00,Wunderground v.1.15,2013-03-16 13:29:00,
2013-03-16 06:34:00,40.1,37.1,30.03,SSW,198,7.0,11.0,89,0.00,,,0.00,Wunderground v.1.15,2013-03-16 13:34:00,
2013-03-16 06:39:00,40.0,37.0,30.03,South,184,10.0,13.0,89,0.00,,,0.00,Wunderground v.1.15,2013-03-16 13:39:00,
2013-03-16 06:44:00,40.1,37.1,30.03,South,189,9.0,12.0,89,0.00,,,0.00,Wunderground v.1.15,2013-03-16 13:44:00,
2013-03-16 06:49:00,40.2,37.2,30.02,SSW,197,7.0,12.0,89,0.00,,,0.00,Wunderground v.1.15,2013-03-16 13:49:00,
2013-03-16 06:54:00,40.2,37.2,30.02,SSW,197,7.0,10.0,89,0.00,,,0.00,Wunderground v.1.15,2013-03-16 13:54:00,
2013-03-16 06:59:00,40.2,37.2,30.02,South,188,7.0,10.0,89,0.00,,,0.00,Wunderground v.1.15,2013-03-16 13:59:00,
2013-03-16 07:04:00,40.3,37.3,30.02,SW,214,8.0,11.0,89,0.00,,,0.00,Wunderground v.1.15,2013-03-16 14:04:00,
2013-03-16 07:09:00,40.5,37.2,30.02,SSW,192,8.0,13.0,88,0.00,,,0.00,Wunderground v.1.15,2013-03-16 14:09:00,
2013-03-16 07:14:00,40.6,37.3,30.01,SSW,194,11.0,11.0,88,0.00,,,0.00,Wunderground v.1.15,2013-03-16 14:14:00,
2013-03-16 07:19:00,40.6,37.3,30.01,SSW,194,11.0,14.0,88,0.00,,,0.00,Wunderground v.1.15,2013-03-16 14:19:00,
2013-03-16 07:24:00,40.7,37.1,30.01,SSW,198,9.0,17.0,87,0.00,,,0.00,Wunderground v.1.15,2013-03-16 14:24:00,
2013-03-16 07:29:00,40.7,37.1,30.01,South,185,9.0,17.0,87,0.00,,,0.00,Wunderground v.1.15,2013-03-16 14:29:00,
2013-03-16 07:34:00,40.7,37.1,30.01,SSW,198,9.0,15.0,87,0.00,,,0.00,Wunderground v.1.15,2013-03-16 14:34:00,
2013-03-16 07:40:00,40.7,37.1,30.01,SSW,196,16.0,16.0,87,0.00,,,0.00,Wunderground v.1.15,2013-03-16 14:40:00,
2013-03-16 07:45:00,40.7,37.1,30.01,SSW,208,10.0,17.0,87,0.00,,,0.00,Wunderground v.1.15,2013-03-16 14:45:00,
2013-03-16 07:50:00,40.7,37.1,30.01,SSW,205,8.0,11.0,87,0.00,,,0.00,Wunderground v.1.15,2013-03-16 14:50:00,
2013-03-16 07:55:00,40.5,37.2,30.01,SSW,205,8.0,12.0,88,0.00,,,0.00,Wunderground v.1.15,2013-03-16 14:55:00,
2013-03-16 08:00:00,40.6,37.0,30.01,South,191,9.0,11.0,87,0.00,,,0.00,Wunderground v.1.15,2013-03-16 15:00:00,
2013-03-16 08:05:00,40.5,37.2,30.01,SSW,212,7.0,11.0,88,0.00,,,0.00,Wunderground v.1.15,2013-03-16 15:05:00,
2013-03-16 08:10:00,40.5,37.2,30.01,SW,215,9.0,12.0,88,0.00,,,0.00,Wunderground v.1.15,2013-03-16 15:10:00,
2013-03-16 08:15:00,40.5,37.2,30.01,SW,220,13.0,14.0,88,0.00,,,0.00,Wunderground v.1.15,2013-03-16 15:15:00,
2013-03-16 08:20:00,40.6,37.3,30.01,SW,225,8.0,10.0,88,0.00,,,0.00,Wunderground v.1.15,2013-03-16 15:20:00,
2013-03-16 08:25:00,40.6,37.0,30.01,SW,217,11.0,16.0,87,0.00,,,0.00,Wunderground v.1.15,2013-03-16 15:25:00,
2013-03-16 08:30:00,40.7,37.1,30.01,SW,215,9.0,11.0,87,0.00,,,0.00,Wunderground v.1.15,2013-03-16 15:30:00,
2013-03-16 08:35:00,40.6,37.3,30.01,SSW,205,9.0,11.0,88,0.00,,,0.00,Wunderground v.1.15,2013-03-16 15:35:00,
2013-03-16 08:40:00,40.7,37.4,30.01,SSW,211,11.0,12.0,88,0.00,,,0.00,Wunderground v.1.15,2013-03-16 15:40:00,
2013-03-16 08:45:00,40.8,37.2,30.01,SSW,206,11.0,14.0,87,0.00,,,0.00,Wunderground v.1.15,2013-03-16 15:45:00,
2013-03-16 08:50:00,40.8,37.5,30.01,SW,225,10.0,12.0,88,0.00,,,0.00,Wunderground v.1.15,2013-03-16 15:50:00,
2013-03-16 08:55:00,40.8,37.5,30.00,SSW,212,11.0,13.0,88,0.00,,,0.00,Wunderground v.1.15,2013-03-16 15:55:00,
2013-03-16 09:00:00,41.1,37.5,30.01,SSW,197,11.0,12.0,87,0.00,,,0.00,Wunderground v.1.15,2013-03-16 16:00:00,
2013-03-16 09:05:00,41.2,37.6,30.01,SSW,210,10.0,12.0,87,0.00,,,0.00,Wunderground v.1.15,2013-03-16 16:05:00,
2013-03-16 09:10:00,41.3,37.7,30.01,SSW,209,7.0,10.0,87,0.00,,,0.00,Wunderground v.1.15,2013-03-16 16:10:00,
2013-03-16 09:15:00,41.6,38.0,30.01,South,185,11.0,12.0,87,0.00,,,0.00,Wunderground v.1.15,2013-03-16 16:15:00,
2013-03-16 09:20:00,41.9,38.0,30.01,SSW,206,13.0,13.0,86,0.00,,,0.00,Wunderground v.1.15,2013-03-16 16:20:00,
2013-03-16 09:25:00,42.0,37.8,30.01,SSW,202,17.0,17.0,85,0.00,,,0.00,Wunderground v.1.15,2013-03-16 16:25:00,
2013-03-16 09:30:00,42.0,37.8,30.01,SSW,202,12.0,16.0,85,0.00,,,0.00,Wunderground v.1.15,2013-03-16 16:30:00,
2013-03-16 09:35:00,42.1,37.9,30.01,SSW,205,10.0,18.0,85,0.00,,,0.00,Wunderground v.1.15,2013-03-16 16:35:00,
2013-03-16 09:40:00,42.2,38.0,30.01,SSW,198,13.0,13.0,85,0.00,,,0.00,Wunderground v.1.15,2013-03-16 16:40:00,
2013-03-16 09:45:00,42.3,38.1,30.01,SSW,198,11.0,15.0,85,0.00,,,0.00,Wunderground v.1.15,2013-03-16 16:45:00,
2013-03-16 09:50:00,42.3,38.1,30.01,South,187,13.0,13.0,85,0.00,,,0.00,Wunderground v.1.15,2013-03-16 16:50:00,
2013-03-16 09:55:00,42.3,37.8,30.01,South,190,14.0,16.0,84,0.00,,,0.00,Wunderground v.1.15,2013-03-16 16:55:00,
2013-03-16 10:00:00,42.3,38.1,30.01,SSW,205,16.0,17.0,85,0.00,,,0.00,Wunderground v.1.15,2013-03-16 17:00:00,
2013-03-16 10:05:00,42.3,37.8,30.01,SSW,212,14.0,18.0,84,0.00,,,0.00,Wunderground v.1.15,2013-03-16 17:05:00,
2013-03-16 10:10:00,42.4,38.2,30.01,SSW,209,11.0,15.0,85,0.00,,,0.00,Wunderground v.1.15,2013-03-16 17:10:00,
2013-03-16 10:15:00,42.4,37.9,30.01,SSW,205,7.0,15.0,84,0.00,,,0.00,Wunderground v.1.15,2013-03-16 17:15:00,
2013-03-16 10:20:00,42.8,38.3,30.01,SSW,198,14.0,14.0,84,0.00,,,0.00,Wunderground v.1.15,2013-03-16 17:20:00,
2013-03-16 10:25:00,42.9,38.1,30.01,SW,220,9.0,15.0,83,0.00,,,0.00,Wunderground v.1.15,2013-03-16 17:25:00,
2013-03-16 10:30:00,43.0,38.2,30.00,SSW,205,9.0,13.0,83,0.00,,,0.00,Wunderground v.1.15,2013-03-16 17:30:00,
2013-03-16 10:35:00,43.4,38.3,30.00,SW,221,9.0,13.0,82,0.00,,,0.00,Wunderground v.1.15,2013-03-16 17:35:00,
2013-03-16 10:40:00,43.9,38.4,30.00,SSW,211,11.0,15.0,81,0.00,,,0.00,Wunderground v.1.15,2013-03-16 17:40:00,
2013-03-16 10:45:00,43.9,38.4,30.00,SSW,203,9.0,17.0,81,0.00,,,0.00,Wunderground v.1.15,2013-03-16 17:45:00,
2013-03-16 10:50:00,43.8,38.0,30.00,SW,217,12.0,13.0,80,0.00,,,0.00,Wunderground v.1.15,2013-03-16 17:50:00,
2013-03-16 10:55:00,44.5,38.4,30.00,SSW,210,8.0,14.0,79,0.00,,,0.00,Wunderground v.1.15,2013-03-16 17:55:00,
2013-03-16 11:01:00,44.5,38.4,29.99,SSW,207,10.0,12.0,79,0.00,,,0.00,Wunderground v.1.15,2013-03-16 18:01:00,
2013-03-16 11:06:00,44.3,38.2,29.99,SSW,202,16.0,16.0,79,0.00,,,0.00,Wunderground v.1.15,2013-03-16 18:06:00,
2013-03-16 11:11:00,44.2,38.4,29.99,SW,219,13.0,14.0,80,0.00,,,0.00,Wunderground v.1.15,2013-03-16 18:11:00,
2013-03-16 11:16:00,44.6,38.5,29.99,SW,214,15.0,17.0,79,0.00,,,0.00,Wunderground v.1.15,2013-03-16 18:16:00,
2013-03-16 11:21:00,44.7,38.6,29.99,SW,226,18.0,18.0,79,0.00,,,0.00,Wunderground v.1.15,2013-03-16 18:21:00,
2013-03-16 11:27:00,44.5,38.4,29.98,South,189,17.0,18.0,79,0.00,,,0.00,Wunderground v.1.15,2013-03-16 18:27:00,
2013-03-16 11:32:00,44.6,38.2,29.98,SW,222,16.0,18.0,78,0.00,,,0.00,Wunderground v.1.15,2013-03-16 18:32:00,
2013-03-16 11:37:00,44.6,38.2,29.98,SSW,205,8.0,19.0,78,0.00,,,0.00,Wunderground v.1.15,2013-03-16 18:37:00,
2013-03-16 11:42:00,44.7,38.6,29.98,SW,220,12.0,15.0,79,0.00,,,0.00,Wunderground v.1.15,2013-03-16 18:42:00,
2013-03-16 11:47:00,45.1,39.0,29.98,SSW,202,12.0,15.0,79,0.00,,,0.00,Wunderground v.1.15,2013-03-16 18:47:00,
2013-03-16 11:52:00,45.6,38.8,29.98,SW,217,16.0,17.0,77,0.00,,,0.00,Wunderground v.1.15,2013-03-16 18:52:00,
2013-03-16 11:57:00,45.8,39.0,29.97,SSW,202,16.0,21.0,77,0.00,,,0.00,Wunderground v.1.15,2013-03-16 18:57:00,
2013-03-16 12:02:00,46.0,38.9,29.97,South,182,14.0,18.0,76,0.00,,,0.00,Wunderground v.1.15,2013-03-16 19:02:00,
2013-03-16 12:07:00,46.1,38.6,29.97,SW,219,15.0,18.0,75,0.00,,,0.00,Wunderground v.1.15,2013-03-16 19:07:00,
2013-03-16 12:12:00,46.1,39.0,29.97,SSW,197,13.0,18.0,76,0.00,,,0.00,Wunderground v.1.15,2013-03-16 19:12:00,
2013-03-16 12:18:00,46.0,38.9,29.97,SSW,211,12.0,19.0,76,0.00,,,0.00,Wunderground v.1.15,2013-03-16 19:18:00,
2013-03-16 12:23:00,45.9,38.8,29.96,SW,220,16.0,19.0,76,0.00,,,0.00,Wunderground v.1.15,2013-03-16 19:23:00,
2013-03-16 12:29:00,45.9,38.4,29.96,SW,215,17.0,19.0,75,0.00,,,0.00,Wunderground v.1.15,2013-03-16 19:29:00,
2013-03-16 12:34:00,46.1,38.6,29.95,SSW,192,18.0,19.0,75,0.00,,,0.00,Wunderground v.1.15,2013-03-16 19:34:00,
2013-03-16 12:39:00,46.6,39.1,29.95,SW,227,14.0,19.0,75,0.00,,,0.00,Wunderground v.1.15,2013-03-16 19:39:00,
2013-03-16 12:44:00,47.0,38.8,29.95,SSW,209,16.0,21.0,73,0.00,,,0.00,Wunderground v.1.15,2013-03-16 19:44:00,
2013-03-16 12:49:00,47.4,38.8,29.94,SSW,200,14.0,21.0,72,0.00,,,0.00,Wunderground v.1.15,2013-03-16 19:49:00,
2013-03-16 12:54:00,47.8,39.2,29.94,SSW,212,13.0,23.0,72,0.00,,,0.00,Wunderground v.1.15,2013-03-16 19:54:00,
2013-03-16 12:59:00,48.4,39.4,29.94,SW,222,16.0,23.0,71,0.00,,,0.00,Wunderground v.1.15,2013-03-16 19:59:00,
2013-03-16 13:04:00,48.2,38.5,29.93,SSW,210,9.0,24.0,69,0.00,,,0.00,Wunderground v.1.15,2013-03-16 20:04:00,
2013-03-16 13:09:00,48.3,39.0,29.93,SSW,202,12.0,24.0,70,0.00,,,0.00,Wunderground v.1.15,2013-03-16 20:09:00,
2013-03-16 13:14:00,48.5,38.8,29.93,SSW,200,19.0,22.0,69,0.00,,,0.00,Wunderground v.1.15,2013-03-16 20:14:00,
2013-03-16 13:19:00,48.6,38.1,29.93,SSW,209,10.0,25.0,67,0.00,,,0.00,Wunderground v.1.15,2013-03-16 20:19:00,
2013-03-16 13:24:00,48.7,38.6,29.92,SW,227,15.0,22.0,68,0.00,,,0.00,Wunderground v.1.15,2013-03-16 20:24:00,
2013-03-16 13:29:00,49.1,39.0,29.92,SSW,196,16.0,24.0,68,0.00,,,0.00,Wunderground v.1.15,2013-03-16 20:29:00,
2013-03-16 13:34:00,48.7,38.2,29.92,SSW,207,18.0,21.0,67,0.00,,,0.00,Wunderground v.1.15,2013-03-16 20:34:00,
2013-03-16 13:39:00,48.3,37.8,29.91,SW,220,19.0,24.0,67,0.00,,,0.00,Wunderground v.1.15,2013-03-16 20:39:00,
2013-03-16 13:44:00,48.5,37.3,29.91,SSW,207,19.0,24.0,65,0.00,,,0.00,Wunderground v.1.15,2013-03-16 20:44:00,
2013-03-16 13:49:00,48.8,37.2,29.91,SW,232,13.0,24.0,64,0.00,,,0.00,Wunderground v.1.15,2013-03-16 20:49:00,
2013-03-16 13:54:00,49.1,35.8,29.91,SSW,211,13.0,21.0,60,0.00,,,0.00,Wunderground v.1.15,2013-03-16 20:54:00,
2013-03-16 13:59:00,49.1,37.0,29.90,SSW,198,8.0,22.0,63,0.00,,,0.00,Wunderground v.1.15,2013-03-16 20:59:00,
2013-03-16 14:04:00,49.6,37.1,29.90,SSW,200,15.0,19.0,62,0.00,,,0.00,Wunderground v.1.15,2013-03-16 21:04:00,
2013-03-16 14:10:00,49.7,37.2,29.90,SW,225,17.0,17.0,62,0.00,,,0.00,Wunderground v.1.15,2013-03-16 21:10:00,
2013-03-16 14:15:00,49.3,37.2,29.89,SW,224,21.0,21.0,63,0.00,,,0.00,Wunderground v.1.15,2013-03-16 21:15:00,
2013-03-16 14:20:00,49.4,36.9,29.89,SW,221,17.0,19.0,62,0.00,,,0.00,Wunderground v.1.15,2013-03-16 21:20:00,
2013-03-16 14:25:00,49.4,36.1,29.89,SW,217,24.0,24.0,60,0.00,,,0.00,Wunderground v.1.15,2013-03-16 21:25:00,
2013-03-16 14:30:00,49.1,37.8,29.88,SW,225,16.0,16.0,65,0.00,,,0.00,Wunderground v.1.15,2013-03-16 21:30:00,
2013-03-16 14:35:00,49.2,37.9,29.88,SSW,213,15.0,23.0,65,0.00,,,0.00,Wunderground v.1.15,2013-03-16 21:35:00,
2013-03-16 14:40:00,48.7,37.5,29.88,SSE,167,13.0,20.0,65,0.00,,,0.00,Wunderground v.1.15,2013-03-16 21:40:00,
2013-03-16 14:45:00,48.4,37.6,29.88,SSW,211,21.0,26.0,66,0.00,,,0.00,Wunderground v.1.15,2013-03-16 21:45:00,
2013-03-16 14:50:00,48.7,37.8,29.87,SW,215,13.0,17.0,66,0.00,,,0.00,Wunderground v.1.15,2013-03-16 21:50:00,
2013-03-16 14:55:00,48.8,37.9,29.87,SSW,205,15.0,21.0,66,0.00,,,0.00,Wunderground v.1.15,2013-03-16 21:55:00,
2013-03-16 15:00:00,49.1,37.0,29.86,SSW,198,12.0,16.0,63,0.00,,,0.00,Wunderground v.1.15,2013-03-16 22:00:00,
2013-03-16 15:05:00,49.1,35.8,29.86,SW,215,15.0,20.0,60,0.00,,,0.00,Wunderground v.1.15,2013-03-16 22:05:00,
2013-03-16 15:10:00,48.9,35.6,29.86,SW,217,16.0,20.0,60,0.00,,,0.00,Wunderground v.1.15,2013-03-16 22:10:00,
2013-03-16 15:15:00,48.2,34.1,29.86,SW,225,14.0,25.0,58,0.00,,,0.00,Wunderground v.1.15,2013-03-16 22:15:00,
2013-03-16 15:20:00,47.4,34.2,29.86,SW,224,10.0,17.0,60,0.00,,,0.00,Wunderground v.1.15,2013-03-16 22:20:00,
2013-03-16 15:25:00,47.0,35.8,29.86,WSW,248,13.0,20.0,65,0.00,,,0.00,Wunderground v.1.15,2013-03-16 22:25:00,
2013-03-16 15:30:00,45.1,35.9,29.85,WSW,246,3.0,11.0,70,0.00,,,0.01,Wunderground v.1.15,2013-03-16 22:30:00,
2013-03-16 15:35:00,45.0,36.9,29.85,WSW,242,6.0,12.0,73,0.00,,,0.01,Wunderground v.1.15,2013-03-16 22:35:00,
2013-03-16 15:40:00,45.2,37.1,29.85,SW,225,7.0,8.0,73,0.00,,,0.01,Wunderground v.1.15,2013-03-16 22:40:00,
2013-03-16 15:46:00,45.9,37.7,29.85,SSW,198,16.0,16.0,73,0.00,,,0.01,Wunderground v.1.15,2013-03-16 22:46:00,
2013-03-16 15:51:00,46.6,36.2,29.85,SW,218,20.0,25.0,67,0.00,,,0.01,Wunderground v.1.15,2013-03-16 22:51:00,
2013-03-16 15:56:00,46.2,33.5,29.85,SW,220,15.0,25.0,61,0.00,,,0.01,Wunderground v.1.15,2013-03-16 22:56:00,
2013-03-16 16:01:00,45.1,34.8,29.85,SSW,208,13.0,20.0,67,0.00,,,0.01,Wunderground v.1.15,2013-03-16 23:01:00,
2013-03-16 16:06:00,44.7,34.0,29.85,SSW,196,18.0,20.0,66,0.00,,,0.01,Wunderground v.1.15,2013-03-16 23:06:00,
2013-03-16 16:11:00,45.3,34.6,29.84,SW,222,13.0,15.0,66,0.00,,,0.01,Wunderground v.1.15,2013-03-16 23:11:00,
2013-03-16 16:16:00,46.1,35.4,29.84,SSW,208,12.0,17.0,66,0.00,,,0.01,Wunderground v.1.15,2013-03-16 23:16:00,
2013-03-16 16:21:00,46.7,36.3,29.84,SSW,196,16.0,17.0,67,0.00,,,0.01,Wunderground v.1.15,2013-03-16 23:21:00,
2013-03-16 16:26:00,46.9,36.5,29.84,SW,217,17.0,25.0,67,0.00,,,0.01,Wunderground v.1.15,2013-03-16 23:26:00,
2013-03-16 16:31:00,47.2,36.8,29.84,SSW,213,10.0,18.0,67,0.00,,,0.01,Wunderground v.1.15,2013-03-16 23:31:00,
2013-03-16 16:36:00,47.2,35.6,29.84,SSW,213,13.0,26.0,64,0.00,,,0.01,Wunderground v.1.15,2013-03-16 23:36:00,
2013-03-16 16:41:00,47.1,35.1,29.83,SW,214,19.0,22.0,63,0.00,,,0.01,Wunderground v.1.15,2013-03-16 23:41:00,
2013-03-16 16:47:00,47.0,35.0,29.83,SW,217,18.0,22.0,63,0.00,,,0.01,Wunderground v.1.15,2013-03-16 23:47:00,
2013-03-16 16:52:00,47.0,34.2,29.83,SW,220,20.0,25.0,61,0.00,,,0.01,Wunderground v.1.15,2013-03-16 23:52:00,
2013-03-16 16:57:00,46.9,34.6,29.83,SW,217,14.0,25.0,62,0.00,,,0.01,Wunderground v.1.15,2013-03-16 23:57:00,
2013-03-16 17:02:00,46.8,33.6,29.83,SSW,208,15.0,20.0,60,0.00,,,0.01,Wunderground v.1.15,2013-03-17 00:02:00,
2013-03-16 17:07:00,46.7,34.0,29.82,SW,215,19.0,26.0,61,0.00,,,0.01,Wunderground v.1.15,2013-03-17 00:07:00,
2013-03-16 17:12:00,46.7,34.4,29.82,SSW,207,21.0,21.0,62,0.00,,,0.01,Wunderground v.1.15,2013-03-17 00:12:00,
2013-03-16 17:17:00,46.7,34.8,29.82,WSW,246,13.0,22.0,63,0.00,,,0.01,Wunderground v.1.15,2013-03-17 00:17:00,
2013-03-16 17:22:00,46.7,34.8,29.82,SSW,202,20.0,21.0,63,0.00,,,0.01,Wunderground v.1.15,2013-03-17 00:22:00,
2013-03-16 17:27:00,46.7,34.8,29.82,SW,219,10.0,23.0,63,0.00,,,0.01,Wunderground v.1.15,2013-03-17 00:27:00,
2013-03-16 17:32:00,46.7,34.8,29.82,SW,218,21.0,25.0,63,0.00,,,0.01,Wunderground v.1.15,2013-03-17 00:32:00,
2013-03-16 17:37:00,46.6,35.5,29.81,SW,216,15.0,25.0,65,0.00,,,0.01,Wunderground v.1.15,2013-03-17 00:37:00,
2013-03-16 17:42:00,46.0,34.1,29.82,SW,215,22.0,22.0,63,0.00,,,0.01,Wunderground v.1.15,2013-03-17 00:42:00,
2013-03-16 17:47:00,44.4,33.4,29.81,SSW,205,16.0,26.0,65,0.00,,,0.01,Wunderground v.1.15,2013-03-17 00:47:00,
2013-03-16 17:52:00,43.8,33.6,29.81,SSW,193,21.0,21.0,67,0.00,,,0.01,Wunderground v.1.15,2013-03-17 00:52:00,
2013-03-16 17:57:00,43.8,34.3,29.81,SW,220,18.0,28.0,69,0.00,,,0.01,Wunderground v.1.15,2013-03-17 00:57:00,
2013-03-16 18:02:00,43.0,35.3,29.81,SSW,206,19.0,24.0,74,0.00,,,0.01,Wunderground v.1.15,2013-03-17 01:02:00,
2013-03-16 18:07:00,41.9,35.2,29.81,SW,214,27.0,34.0,77,0.00,,,0.01,Wunderground v.1.15,2013-03-17 01:07:00,
2013-03-16 18:12:00,41.4,35.4,29.81,SSW,203,20.0,25.0,79,0.00,,,0.01,Wunderground v.1.15,2013-03-17 01:12:00,
2013-03-16 18:17:00,41.5,35.5,29.81,SSW,202,16.0,27.0,79,0.00,,,0.01,Wunderground v.1.15,2013-03-17 01:17:00,
2013-03-16 18:22:00,41.6,35.6,29.81,SSW,194,19.0,23.0,79,0.00,,,0.01,Wunderground v.1.15,2013-03-17 01:22:00,
2013-03-16 18:27:00,41.8,35.4,29.80,SSW,203,17.0,26.0,78,0.00,,,0.01,Wunderground v.1.15,2013-03-17 01:27:00,
2013-03-16 18:32:00,42.0,35.6,29.80,SW,216,15.0,24.0,78,0.00,,,0.01,Wunderground v.1.15,2013-03-17 01:32:00,
2013-03-16 18:38:00,42.1,36.1,29.80,SSW,206,15.0,24.0,79,0.00,,,0.01,Wunderground v.1.15,2013-03-17 01:38:00,
2013-03-16 18:43:00,42.4,36.0,29.80,SW,224,15.0,23.0,78,0.00,,,0.01,Wunderground v.1.15,2013-03-17 01:43:00,
2013-03-16 18:47:00,42.7,36.0,29.80,SW,217,16.0,23.0,77,0.00,,,0.01,Wunderground v.1.15,2013-03-17 01:47:00,
2013-03-16 18:53:00,43.0,35.6,29.80,SW,216,16.0,18.0,75,0.00,,,0.01,Wunderground v.1.15,2013-03-17 01:53:00,
2013-03-16 18:58:00,43.1,35.7,29.80,SSW,195,13.0,20.0,75,0.00,,,0.01,Wunderground v.1.15,2013-03-17 01:58:00,
2013-03-16 19:04:00,43.1,35.7,29.80,SSW,205,13.0,20.0,75,0.00,,,0.01,Wunderground v.1.15,2013-03-17 02:04:00,
2013-03-16 19:09:00,42.7,36.0,29.79,SSW,196,14.0,20.0,77,0.00,,,0.01,Wunderground v.1.15,2013-03-17 02:09:00,
2013-03-16 19:14:00,42.4,36.0,29.79,South,184,19.0,22.0,78,0.00,,,0.01,Wunderground v.1.15,2013-03-17 02:14:00,
2013-03-16 19:19:00,42.2,36.2,29.79,SSW,194,13.0,24.0,79,0.00,,,0.01,Wunderground v.1.15,2013-03-17 02:19:00,
2013-03-16 19:24:00,42.1,36.1,29.78,SSW,208,21.0,27.0,79,0.00,,,0.01,Wunderground v.1.15,2013-03-17 02:24:00,
2013-03-16 19:29:00,41.9,36.2,29.78,SSW,211,12.0,27.0,80,0.00,,,0.01,Wunderground v.1.15,2013-03-17 02:29:00,
2013-03-16 19:34:00,41.8,36.1,29.78,South,187,17.0,21.0,80,0.00,,,0.01,Wunderground v.1.15,2013-03-17 02:34:00,
2013-03-16 19:39:00,41.7,36.0,29.78,SSW,204,19.0,21.0,80,0.00,,,0.01,Wunderground v.1.15,2013-03-17 02:39:00,
2013-03-16 19:44:00,41.7,36.0,29.78,South,189,11.0,23.0,80,0.00,,,0.01,Wunderground v.1.15,2013-03-17 02:44:00,
2013-03-16 19:49:00,41.7,36.0,29.78,SSW,204,15.0,23.0,80,0.00,,,0.01,Wunderground v.1.15,2013-03-17 02:49:00,
2013-03-16 19:54:00,41.6,35.9,29.78,SSW,206,18.0,23.0,80,0.00,,,0.01,Wunderground v.1.15,2013-03-17 02:54:00,
2013-03-16 19:59:00,41.6,35.9,29.78,South,186,18.0,23.0,80,0.00,,,0.01,Wunderground v.1.15,2013-03-17 02:59:00,
2013-03-16 20:04:00,41.5,35.8,29.78,SSW,204,12.0,23.0,80,0.00,,,0.01,Wunderground v.1.15,2013-03-17 03:04:00,
2013-03-16 20:09:00,41.5,36.1,29.78,SSW,194,9.0,23.0,81,0.00,,,0.01,Wunderground v.1.15,2013-03-17 03:09:00,
2013-03-16 20:14:00,41.4,36.0,29.79,SSW,208,17.0,18.0,81,0.00,,,0.01,Wunderground v.1.15,2013-03-17 03:14:00,
2013-03-16 20:19:00,41.3,36.2,29.79,SW,223,9.0,20.0,82,0.00,,,0.01,Wunderground v.1.15,2013-03-17 03:19:00,
2013-03-16 20:24:00,41.1,36.0,29.79,WSW,240,5.0,17.0,82,0.00,,,0.01,Wunderground v.1.15,2013-03-17 03:24:00,
2013-03-16 20:29:00,40.7,36.2,29.79,SW,234,13.0,17.0,84,0.00,,,0.02,Wunderground v.1.15,2013-03-17 03:29:00,
2013-03-16 20:34:00,39.7,35.9,29.79,SW,235,6.0,15.0,86,0.00,,,0.02,Wunderground v.1.15,2013-03-17 03:34:00,
2013-03-16 20:39:00,39.3,36.0,29.79,West,261,5.0,8.0,88,0.00,,,0.02,Wunderground v.1.15,2013-03-17 03:39:00,
2013-03-16 20:44:00,39.0,36.0,29.78,SW,231,5.0,10.0,89,0.00,,,0.02,Wunderground v.1.15,2013-03-17 03:44:00,
2013-03-16 20:50:00,38.9,35.9,29.78,SW,222,5.0,5.0,89,0.00,,,0.02,Wunderground v.1.15,2013-03-17 03:50:00,
2013-03-16 20:55:00,38.8,35.8,29.77,South,186,6.0,7.0,89,0.00,,,0.02,Wunderground v.1.15,2013-03-17 03:55:00,
2013-03-16 21:00:00,39.3,36.0,29.77,SSW,209,7.0,7.0,88,0.00,,,0.02,Wunderground v.1.15,2013-03-17 04:00:00,
2013-03-16 21:05:00,39.6,36.0,29.77,SSW,198,7.0,11.0,87,0.00,,,0.02,Wunderground v.1.15,2013-03-17 04:05:00,
2013-03-16 21:10:00,39.7,35.9,29.77,SSW,200,5.0,7.0,86,0.00,,,0.02,Wunderground v.1.15,2013-03-17 04:10:00,
2013-03-16 21:15:00,39.9,36.1,29.77,SSW,202,7.0,9.0,86,0.00,,,0.02,Wunderground v.1.15,2013-03-17 04:15:00,
2013-03-16 21:20:00,39.9,36.1,29.76,SSW,202,7.0,8.0,86,0.00,,,0.02,Wunderground v.1.15,2013-03-17 04:20:00,
2013-03-16 21:25:00,39.8,36.0,29.76,South,174,8.0,10.0,86,0.00,,,0.02,Wunderground v.1.15,2013-03-17 04:25:00,
2013-03-16 21:30:00,39.8,36.0,29.76,SSW,196,9.0,10.0,86,0.00,,,0.02,Wunderground v.1.15,2013-03-17 04:30:00,
2013-03-16 21:35:00,39.7,35.9,29.75,South,190,9.0,10.0,86,0.00,,,0.02,Wunderground v.1.15,2013-03-17 04:35:00,
2013-03-16 21:40:00,39.6,35.8,29.75,South,187,11.0,11.0,86,0.00,,,0.02,Wunderground v.1.15,2013-03-17 04:40:00,
2013-03-16 21:45:00,39.5,35.7,29.75,SSW,194,6.0,11.0,86,0.00,,,0.02,Wunderground v.1.15,2013-03-17 04:45:00,
2013-03-16 21:50:00,39.6,35.8,29.75,SSW,194,7.0,11.0,86,0.00,,,0.02,Wunderground v.1.15,2013-03-17 04:50:00,
2013-03-16 21:56:00,39.6,35.5,29.75,SSW,194,12.0,13.0,85,0.00,,,0.02,Wunderground v.1.15,2013-03-17 04:56:00,
2013-03-16 22:01:00,39.7,35.6,29.75,SSW,209,9.0,11.0,85,0.00,,,0.02,Wunderground v.1.15,2013-03-17 05:01:00,
2013-03-16 22:07:00,39.7,35.3,29.75,SSW,205,8.0,15.0,84,0.00,,,0.02,Wunderground v.1.15,2013-03-17 05:07:00,
2013-03-16 22:12:00,39.8,34.8,29.75,SSW,211,11.0,17.0,82,0.00,,,0.02,Wunderground v.1.15,2013-03-17 05:12:00,
2013-03-16 22:17:00,40.0,34.6,29.75,SW,214,15.0,17.0,81,0.00,,,0.02,Wunderground v.1.15,2013-03-17 05:17:00,
2013-03-16 22:22:00,39.8,34.4,29.75,SW,215,12.0,15.0,81,0.00,,,0.02,Wunderground v.1.15,2013-03-17 05:22:00,
2013-03-16 22:27:00,39.7,34.0,29.75,SSW,211,14.0,18.0,80,0.00,,,0.02,Wunderground v.1.15,2013-03-17 05:27:00,
2013-03-16 22:32:00,39.6,33.3,29.75,SW,217,13.0,18.0,78,0.00,,,0.02,Wunderground v.1.15,2013-03-17 05:32:00,
2013-03-16 22:37:00,39.4,32.8,29.75,SSW,207,10.0,19.0,77,0.00,,,0.02,Wunderground v.1.15,2013-03-17 05:37:00,
2013-03-16 22:42:00,39.3,32.7,29.75,SSW,212,8.0,18.0,77,0.00,,,0.02,Wunderground v.1.15,2013-03-17 05:42:00,
2013-03-16 22:47:00,39.2,31.9,29.75,SSW,205,15.0,20.0,75,0.00,,,0.02,Wunderground v.1.15,2013-03-17 05:47:00,
2013-03-16 22:52:00,39.1,31.2,29.74,SW,223,17.0,19.0,73,0.00,,,0.02,Wunderground v.1.15,2013-03-17 05:52:00,
2013-03-16 22:57:00,39.1,29.4,29.75,SW,223,17.0,25.0,68,0.00,,,0.02,Wunderground v.1.15,2013-03-17 05:57:00,
2013-03-16 23:02:00,39.1,28.3,29.74,SW,216,17.0,26.0,65,0.00,,,0.02,Wunderground v.1.15,2013-03-17 06:02:00,
2013-03-16 23:07:00,38.5,29.2,29.74,SW,220,18.0,29.0,69,0.00,,,0.02,Wunderground v.1.15,2013-03-17 06:07:00,
2013-03-16 23:12:00,38.2,29.3,29.74,SW,225,22.0,26.0,70,0.00,,,0.02,Wunderground v.1.15,2013-03-17 06:12:00,
2013-03-16 23:17:00,38.0,29.4,29.74,SW,230,22.0,28.0,71,0.00,,,0.02,Wunderground v.1.15,2013-03-17 06:17:00,
2013-03-16 23:22:00,38.0,29.1,29.74,WSW,240,16.0,20.0,70,0.00,,,0.02,Wunderground v.1.15,2013-03-17 06:22:00,
2013-03-16 23:27:00,38.2,28.9,29.74,WSW,248,11.0,20.0,69,0.00,,,0.02,Wunderground v.1.15,2013-03-17 06:27:00,
2013-03-16 23:32:00,38.4,28.0,29.74,SW,217,9.0,17.0,66,0.00,,,0.02,Wunderground v.1.15,2013-03-17 06:32:00,
2013-03-16 23:37:00,38.5,27.7,29.74,SW,216,11.0,21.0,65,0.00,,,0.02,Wunderground v.1.15,2013-03-17 06:37:00,
2013-03-16 23:42:00,38.5,27.4,29.75,SSW,205,12.0,18.0,64,0.00,,,0.02,Wunderground v.1.15,2013-03-17 06:42:00,
2013-03-16 23:47:00,38.3,27.6,29.75,SW,214,18.0,23.0,65,0.00,,,0.02,Wunderground v.1.15,2013-03-17 06:47:00,
2013-03-16 23:52:00,38.1,27.7,29.75,SSW,211,17.0,25.0,66,0.00,,,0.02,Wunderground v.1.15,2013-03-17 06:52:00,
2013-03-16 23:57:00,37.8,28.2,29.75,SSW,201,18.0,25.0,68,0.00,,,0.02,Wunderground v.1.15,2013-03-17 06:57:00,